User: anonymous   Login
Location: Bermeries
(50.2863°N, 3.7551°E)
Time: 10:45:21
(UTC+00:00)
Language:

Okean 3 - Orbit

View from above orbital plane
View from above orbital plane
View from above satellite
View from above satellite

Ground track
Ground track

The orbit data is extracted from the following two-line orbital elements,

1 21397U 91039A   24204.09411412  .00005390  00000-0  44653-3 0  9990
2 21397  82.5181 191.4822 0015951 184.3211 175.7877 14.98578961796706
Epoch (UTC): 22 July 2024 02:15:31
Eccentricity: 0.0015951
inclination: 82.5181°
perigee height: 560 km
apogee height: 582 km
right ascension of ascending node: 191.4822°
argument of perigee: 184.3211°
revolutions per day: 14.98578961
mean anomaly at epoch: 175.7877°
orbit number at epoch: 79670

The dashed part of the orbit path shows where the satellite is in the earth's shadow,  

DLR